FENGYUN 1C DEB, 32129

Orbit data source: Space-Track

FENGYUN 1C DEB, 32129 is space debris in SSO originally from a launch on Mon, 10 May 1999 UTC launched from the Taiyaun Space Center, China (TSC). Fengyun 1C debris stems from the Chinese weather satellite Fengyun-1C, which was intentionally destroyed by a Chinese anti-satellite missile in 2007. This event dramatically increased the amount of space debris, with thousands of trackable fragments posing hazards to satellites and human spaceflight. The Fengyun 1C debris cloud has become a focal point in discussions about space sustainability and the need for international regulations to prevent the creation of new debris.

Loading next visibility...
Identifier
32129, 1999-025CRX
Orbit
SSO
Country
Flag of CNCN / PRC
Related business
Manufacturer
Unknown
Mission
Spacecraft
Bus & Motor
Unknown
Mass
Unknown
Launch date (UTC)
1999-05-10 (26 years ago)
Launch vehicle
Unknown
Launch site
Taiyaun Space Center, China (TSC)
Object type
Payload
Rocket body
Debris
Shape & HBR
Unknown shape, 0.1 m
Radar Cross Section
Small (<0.1 m²)

Expand to show TLE details & history
Last TLE update: 2 days ago

TLE from 2 days ago
0 FENGYUN 1C DEB
1 32129U 99025CRX 25294.28031844  .00012381  00000-0  49122-2 0  9999
2 32129  99.0589  50.7303 0072161 184.7705 243.0454 14.27497218934784
Epoch: 2025-10-21T06:43Z
TLE epoch observation values (Epoch: 2025-10-21T06:43:39.513Z)
Latitude
65.53457°
Longitude
-100.55441°
Altitude
835.161 km
Speed
7.429 km/s
True Right ascension
02h 01m 19s
True Declination
65° 24' 22"
Sunlit
Object was in full shadow at epoch
Visualization orbit readout
Latitude
Unknown
Longitude
Unknown
Altitude
Unknown
Speed
Unknown
Apparent Right ascension
Unknown
Apparent Declination
Unknown
Sunlit
N/A
Visualization observer readout
Local Sidereal Time
21:14:51
Azimuth
Unknown
Elevation
Unknown
Doppler factor
Unknown
Orbital elements
Apogee altitude
849.053 km
Perigee altitude
745.496 km
Semi-major axis
7,175.411 km
Eccentricity
0.00722
Inclination
99.0589°
RAAN
50.7303°
Arg. of periapsis
184.7705°
True anomaly
242.31135°
Mean anomaly
243.0454°
Eccentric anomaly
242.67807°
Mean motion
3.57086 °/min
Orbital period
100.82 mins
BSTAR
0.0049122
Loading maneuver chart data...
Computing Atmospheric mass density...

Documentation

Showing up to 5 results
|